TimePDT,TemperatureF,Dew PointF,Humidity,Sea Level PressureIn,VisibilityMPH,Wind Direction,Wind SpeedMPH,Gust SpeedMPH,PrecipitationIn,Events,Conditions,WindDirDegrees,DateUTC
12:53 AM,59.0,50.0,72,30.04,10.0,Calm,Calm,-,N/A,,Clear,0,2013-09-19 07:53:00
1:53 AM,57.0,48.9,74,30.04,10.0,Calm,Calm,-,N/A,,Clear,0,2013-09-19 08:53:00
2:53 AM,55.0,48.0,77,30.03,10.0,Calm,Calm,-,N/A,,Clear,0,2013-09-19 09:53:00
3:53 AM,55.0,48.0,77,30.01,10.0,Calm,Calm,-,N/A,,Clear,0,2013-09-19 10:53:00
4:53 AM,53.1,46.9,80,30.00,10.0,Calm,Calm,-,N/A,,Clear,0,2013-09-19 11:53:00
5:53 AM,53.1,46.9,80,29.99,10.0,Calm,Calm,-,N/A,,Clear,0,2013-09-19 12:53:00
6:53 AM,54.0,46.9,77,29.99,10.0,Calm,Calm,-,N/A,,Clear,0,2013-09-19 13:53:00
7:53 AM,54.0,48.0,80,29.98,10.0,Calm,Calm,-,N/A,,Partly Cloudy,0,2013-09-19 14:53:00
8:53 AM,57.9,50.0,75,29.97,10.0,Calm,Calm,-,N/A,,Partly Cloudy,0,2013-09-19 15:53:00
9:53 AM,62.1,50.0,65,29.96,10.0,Calm,Calm,-,N/A,,Scattered Clouds,0,2013-09-19 16:53:00
10:53 AM,66.0,51.1,59,29.94,10.0,NW,3.5,-,N/A,,Clear,320,2013-09-19 17:53:00
11:53 AM,66.9,50.0,54,29.92,10.0,Calm,Calm,-,N/A,,Clear,0,2013-09-19 18:53:00
12:53 PM,70.0,50.0,49,29.90,10.0,NNW,4.6,-,N/A,,Scattered Clouds,330,2013-09-19 19:53:00
1:53 PM,72.0,48.0,43,29.87,10.0,NNW,5.8,-,N/A,,Clear,330,2013-09-19 20:53:00
2:53 PM,75.0,48.9,40,29.85,10.0,NW,4.6,-,N/A,,Scattered Clouds,320,2013-09-19 21:53:00
3:53 PM,77.0,48.0,36,29.82,10.0,WNW,3.5,-,N/A,,Clear,300,2013-09-19 22:53:00
4:53 PM,78.1,46.9,33,29.80,10.0,NW,3.5,-,N/A,,Clear,320,2013-09-19 23:53:00
5:53 PM,78.1,44.1,30,29.78,10.0,Calm,Calm,-,N/A,,Clear,0,2013-09-20 00:53:00
6:53 PM,77.0,44.1,31,29.78,10.0,Calm,Calm,-,N/A,,Partly Cloudy,0,2013-09-20 01:53:00
7:53 PM,71.1,48.9,45,29.78,10.0,Calm,Calm,-,N/A,,Clear,0,2013-09-20 02:53:00
8:53 PM,68.0,50.0,52,29.78,10.0,Calm,Calm,-,N/A,,Clear,0,2013-09-20 03:53:00
9:53 PM,66.0,50.0,56,29.78,10.0,Calm,Calm,-,N/A,,Clear,0,2013-09-20 04:53:00
10:53 PM,64.9,50.0,58,29.77,10.0,SE,3.5,-,N/A,,Clear,130,2013-09-20 05:53:00
11:53 PM,63.0,50.0,63,29.77,10.0,SE,3.5,-,N/A,,Clear,130,2013-09-20 06:53:00